Time,TemperatureF,DewpointF,PressureIn,WindDirection,WindDirectionDegrees,WindSpeedMPH,WindSpeedGustMPH,Humidity,HourlyPrecipIn,Conditions,Clouds,dailyrainin,SoftwareType,DateUTC
2013-04-21 00:00:00,54.2,47.1,29.94,NNW,338,1.0,3.0,77,0.00,,,0.00,WeatherCatV1.15B25,2013-04-21 07:00:00,
2013-04-21 00:05:00,53.9,46.5,29.94,NNW,338,0.0,0.0,76,0.00,,,0.00,WeatherCatV1.15B25,2013-04-21 07:05:00,
2013-04-21 00:10:00,53.9,46.5,29.94,NNW,338,0.0,0.0,76,0.00,,,0.00,WeatherCatV1.15B25,2013-04-21 07:10:00,
2013-04-21 00:15:00,53.9,46.5,29.94,NNW,338,0.0,0.0,76,0.00,,,0.00,WeatherCatV1.15B25,2013-04-21 07:15:00,
2013-04-21 00:20:00,53.9,46.8,29.94,NNW,338,1.0,3.0,77,0.00,,,0.00,WeatherCatV1.15B25,2013-04-21 07:20:00,
2013-04-21 00:25:00,53.9,46.8,29.94,NNW,338,1.0,3.0,77,0.00,,,0.00,WeatherCatV1.15B25,2013-04-21 07:25:00,
2013-04-21 00:30:00,53.9,46.8,29.94,NNW,338,1.0,3.0,77,0.00,,,0.00,WeatherCatV1.15B25,2013-04-21 07:30:00,
2013-04-21 00:35:00,54.2,46.1,29.94,NNW,338,0.0,0.0,74,0.00,,,0.00,WeatherCatV1.15B25,2013-04-21 07:35:00,
2013-04-21 00:40:00,54.2,46.1,29.94,NNW,338,0.0,0.0,74,0.00,,,0.00,WeatherCatV1.15B25,2013-04-21 07:40:00,
2013-04-21 00:45:00,54.2,46.1,29.94,NNW,338,0.0,0.0,74,0.00,,,0.00,WeatherCatV1.15B25,2013-04-21 07:45:00,
2013-04-21 00:50:00,54.0,45.5,29.94,NNW,338,0.0,3.0,73,0.00,,,0.00,WeatherCatV1.15B25,2013-04-21 07:50:00,
2013-04-21 00:55:00,54.0,45.5,29.94,NNW,338,0.0,3.0,73,0.00,,,0.00,WeatherCatV1.15B25,2013-04-21 07:55:00,
2013-04-21 01:00:00,54.0,45.5,29.94,NNW,338,0.0,3.0,73,0.00,,,0.00,WeatherCatV1.15B25,2013-04-21 08:00:00,
2013-04-21 01:05:00,53.0,45.3,29.94,NNW,338,0.0,0.0,75,0.00,,,0.00,WeatherCatV1.15B25,2013-04-21 08:05:00,
2013-04-21 01:10:00,53.0,45.3,29.94,NNW,338,0.0,0.0,75,0.00,,,0.00,WeatherCatV1.15B25,2013-04-21 08:10:00,
2013-04-21 01:15:00,53.0,45.3,29.94,NNW,338,0.0,0.0,75,0.00,,,0.00,WeatherCatV1.15B25,2013-04-21 08:15:00,
2013-04-21 01:20:00,52.9,45.9,29.94,NNW,338,0.0,0.0,77,0.00,,,0.00,WeatherCatV1.15B25,2013-04-21 08:20:00,
2013-04-21 01:25:00,52.9,45.9,29.94,NNW,338,0.0,0.0,77,0.00,,,0.00,WeatherCatV1.15B25,2013-04-21 08:25:00,
2013-04-21 01:30:00,52.9,45.9,29.94,NNW,338,0.0,0.0,77,0.00,,,0.00,WeatherCatV1.15B25,2013-04-21 08:30:00,
2013-04-21 01:35:00,52.6,45.6,29.94,NNW,338,0.0,0.0,77,0.00,,,0.00,WeatherCatV1.15B25,2013-04-21 08:35:00,
2013-04-21 01:40:00,52.6,45.6,29.94,NNW,338,0.0,0.0,77,0.00,,,0.00,WeatherCatV1.15B25,2013-04-21 08:40:00,
2013-04-21 01:45:00,52.6,45.6,29.94,NNW,338,0.0,0.0,77,0.00,,,0.00,WeatherCatV1.15B25,2013-04-21 08:45:00,
2013-04-21 01:50:00,53.0,44.6,29.93,NNW,338,0.0,2.0,73,0.00,,,0.00,WeatherCatV1.15B25,2013-04-21 08:50:00,
2013-04-21 01:55:00,53.0,44.6,29.93,NNW,338,0.0,2.0,73,0.00,,,0.00,WeatherCatV1.15B25,2013-04-21 08:55:00,
2013-04-21 02:00:00,53.0,44.6,29.93,NNW,338,0.0,2.0,73,0.00,,,0.00,WeatherCatV1.15B25,2013-04-21 09:00:00,
2013-04-21 02:05:00,53.6,46.2,29.93,NNW,338,1.0,4.0,76,0.00,,,0.00,WeatherCatV1.15B25,2013-04-21 09:05:00,
2013-04-21 02:10:00,53.6,46.2,29.93,NNW,338,1.0,4.0,76,0.00,,,0.00,WeatherCatV1.15B25,2013-04-21 09:10:00,
2013-04-21 02:15:00,53.6,46.2,29.93,NNW,338,1.0,4.0,76,0.00,,,0.00,WeatherCatV1.15B25,2013-04-21 09:15:00,
2013-04-21 02:20:00,53.2,44.4,29.93,NNW,338,0.0,1.0,72,0.00,,,0.00,WeatherCatV1.15B25,2013-04-21 09:20:00,
2013-04-21 02:25:00,53.2,44.4,29.93,NNW,338,0.0,1.0,72,0.00,,,0.00,WeatherCatV1.15B25,2013-04-21 09:25:00,
2013-04-21 02:30:00,53.2,44.4,29.93,NNW,338,0.0,1.0,72,0.00,,,0.00,WeatherCatV1.15B25,2013-04-21 09:30:00,
2013-04-21 02:35:00,52.8,46.8,29.93,NNW,338,2.0,4.0,80,0.00,,,0.00,WeatherCatV1.15B25,2013-04-21 09:35:00,
2013-04-21 02:40:00,52.8,46.8,29.93,NNW,338,2.0,4.0,80,0.00,,,0.00,WeatherCatV1.15B25,2013-04-21 09:40:00,
2013-04-21 02:45:00,52.8,46.8,29.93,NNW,338,2.0,4.0,80,0.00,,,0.00,WeatherCatV1.15B25,2013-04-21 09:45:00,
2013-04-21 02:50:00,52.8,45.4,29.92,NNW,338,0.0,2.0,76,0.00,,,0.00,WeatherCatV1.15B25,2013-04-21 09:50:00,
2013-04-21 02:55:00,52.8,45.4,29.92,NNW,338,0.0,2.0,76,0.00,,,0.00,WeatherCatV1.15B25,2013-04-21 09:55:00,
2013-04-21 03:00:00,52.8,45.4,29.92,NNW,338,0.0,2.0,76,0.00,,,0.00,WeatherCatV1.15B25,2013-04-21 10:00:00,
2013-04-21 03:05:00,53.4,45.0,29.92,NNW,338,1.0,4.0,73,0.00,,,0.00,WeatherCatV1.15B25,2013-04-21 10:05:00,
2013-04-21 03:10:00,53.4,45.0,29.92,NNW,338,1.0,4.0,73,0.00,,,0.00,WeatherCatV1.15B25,2013-04-21 10:10:00,
2013-04-21 03:15:00,53.4,45.0,29.92,NNW,338,1.0,4.0,73,0.00,,,0.00,WeatherCatV1.15B25,2013-04-21 10:15:00,
2013-04-21 03:20:00,53.7,45.2,29.92,NNW,338,1.0,3.0,73,0.00,,,0.00,WeatherCatV1.15B25,2013-04-21 10:20:00,
2013-04-21 03:25:00,53.7,45.2,29.92,NNW,338,1.0,3.0,73,0.00,,,0.00,WeatherCatV1.15B25,2013-04-21 10:25:00,
2013-04-21 03:30:00,53.7,45.2,29.92,NNW,338,1.0,3.0,73,0.00,,,0.00,WeatherCatV1.15B25,2013-04-21 10:30:00,
2013-04-21 03:35:00,53.6,44.8,29.92,NNW,338,1.0,4.0,72,0.00,,,0.00,WeatherCatV1.15B25,2013-04-21 10:35:00,
2013-04-21 03:40:00,53.6,44.8,29.92,NNW,338,1.0,4.0,72,0.00,,,0.00,WeatherCatV1.15B25,2013-04-21 10:40:00,
2013-04-21 03:45:00,53.6,44.8,29.92,NNW,338,1.0,4.0,72,0.00,,,0.00,WeatherCatV1.15B25,2013-04-21 10:45:00,
2013-04-21 03:50:00,53.5,45.1,29.92,NW,315,2.0,5.0,73,0.00,,,0.00,WeatherCatV1.15B25,2013-04-21 10:50:00,
2013-04-21 03:55:00,53.5,45.1,29.92,NW,315,2.0,5.0,73,0.00,,,0.00,WeatherCatV1.15B25,2013-04-21 10:55:00,
2013-04-21 04:00:00,53.5,45.1,29.92,NW,315,2.0,5.0,73,0.00,,,0.00,WeatherCatV1.15B25,2013-04-21 11:00:00,
2013-04-21 04:05:00,53.7,45.6,29.92,NW,315,1.0,4.0,74,0.00,,,0.00,WeatherCatV1.15B25,2013-04-21 11:05:00,
2013-04-21 04:10:00,53.7,45.6,29.92,NW,315,1.0,4.0,74,0.00,,,0.00,WeatherCatV1.15B25,2013-04-21 11:10:00,
2013-04-21 04:15:00,53.7,45.6,29.92,NW,315,1.0,4.0,74,0.00,,,0.00,WeatherCatV1.15B25,2013-04-21 11:15:00,
2013-04-21 04:20:00,55.5,46.3,29.91,NW,315,0.0,4.0,71,0.00,,,0.00,WeatherCatV1.15B25,2013-04-21 11:20:00,
2013-04-21 04:25:00,55.5,46.3,29.91,NW,315,0.0,4.0,71,0.00,,,0.00,WeatherCatV1.15B25,2013-04-21 11:25:00,
2013-04-21 04:30:00,55.5,46.3,29.91,NW,315,0.0,4.0,71,0.00,,,0.00,WeatherCatV1.15B25,2013-04-21 11:30:00,
2013-04-21 04:35:00,56.9,46.8,29.91,NW,315,0.0,2.0,69,0.00,,,0.00,WeatherCatV1.15B25,2013-04-21 11:35:00,
2013-04-21 04:40:00,56.9,46.8,29.91,NW,315,0.0,2.0,69,0.00,,,0.00,WeatherCatV1.15B25,2013-04-21 11:40:00,
2013-04-21 04:45:00,56.9,46.8,29.91,NW,315,0.0,2.0,69,0.00,,,0.00,WeatherCatV1.15B25,2013-04-21 11:45:00,
2013-04-21 04:50:00,56.2,46.5,29.91,NW,315,0.0,3.0,70,0.00,,,0.00,WeatherCatV1.15B25,2013-04-21 11:50:00,
2013-04-21 04:55:00,56.2,46.5,29.91,NW,315,0.0,3.0,70,0.00,,,0.00,WeatherCatV1.15B25,2013-04-21 11:55:00,
2013-04-21 05:09:00,56.2,46.5,29.91,NW,315,0.0,3.0,70,0.00,,,0.00,WeatherCatV1.15B25,2013-04-21 12:09:00,
2013-04-21 05:24:00,54.7,45.9,29.91,NW,324,0.0,2.0,72,0.00,,,0.00,WeatherCatV1.15B25,2013-04-21 12:24:00,
2013-04-21 05:39:00,54.9,46.8,29.91,NW,324,0.0,2.0,74,0.00,,,0.00,WeatherCatV1.15B25,2013-04-21 12:39:00,
2013-04-21 05:54:00,54.7,46.9,29.91,NW,324,0.0,0.0,75,0.00,,,0.00,WeatherCatV1.15B25,2013-04-21 12:54:00,
2013-04-21 06:09:00,54.4,47.0,29.91,NW,324,0.0,1.0,76,0.00,,,0.00,WeatherCatV1.15B25,2013-04-21 13:09:00,
2013-04-21 06:24:00,54.5,47.1,29.91,NW,323,0.0,2.0,76,0.00,,,0.00,WeatherCatV1.15B25,2013-04-21 13:24:00,
2013-04-21 06:39:00,54.7,47.6,29.92,NW,323,0.0,3.0,77,0.00,,,0.00,WeatherCatV1.15B25,2013-04-21 13:39:00,
2013-04-21 06:54:00,55.3,47.9,29.93,NW,323,0.0,3.0,76,0.00,,,0.00,WeatherCatV1.15B25,2013-04-21 13:54:00,
2013-04-21 07:09:00,56.6,48.4,29.93,NW,323,0.0,3.0,74,0.00,,,0.00,WeatherCatV1.15B25,2013-04-21 14:09:00,
2013-04-21 07:24:00,57.7,49.1,29.93,NW,324,0.0,1.0,73,0.00,,,0.00,WeatherCatV1.15B25,2013-04-21 14:24:00,
2013-04-21 07:39:00,58.6,49.6,29.94,NW,323,2.0,4.0,72,0.00,,,0.00,WeatherCatV1.15B25,2013-04-21 14:39:00,
2013-04-21 07:54:00,59.1,50.1,29.95,NW,324,3.0,3.0,72,0.00,,,0.00,WeatherCatV1.15B25,2013-04-21 14:54:00,
2013-04-21 08:09:00,59.7,50.7,29.95,NW,324,1.0,1.0,72,0.00,,,0.00,WeatherCatV1.15B25,2013-04-21 15:09:00,
2013-04-21 08:24:00,61.4,51.1,29.96,NW,323,0.0,2.0,69,0.00,,,0.00,WeatherCatV1.15B25,2013-04-21 15:24:00,
2013-04-21 08:39:00,62.7,52.4,29.96,NW,324,1.0,1.0,69,0.00,,,0.00,WeatherCatV1.15B25,2013-04-21 15:39:00,
2013-04-21 08:54:00,64.3,52.3,29.96,NW,324,0.0,3.0,65,0.00,,,0.00,WeatherCatV1.15B25,2013-04-21 15:54:00,
2013-04-21 09:09:00,65.5,53.0,29.96,NW,324,0.0,3.0,64,0.00,,,0.00,WeatherCatV1.15B25,2013-04-21 16:09:00,
2013-04-21 09:24:00,65.7,54.0,29.96,East,81,3.0,3.0,66,0.00,,,0.00,WeatherCatV1.15B25,2013-04-21 16:24:00,
2013-04-21 09:39:00,65.7,54.0,29.96,East,92,1.0,4.0,66,0.00,,,0.00,WeatherCatV1.15B25,2013-04-21 16:39:00,
2013-04-21 09:54:00,67.5,54.5,29.96,East,93,0.0,1.0,63,0.00,,,0.00,WeatherCatV1.15B25,2013-04-21 16:54:00,
2013-04-21 10:09:00,69.2,54.7,29.97,East,93,0.0,1.0,60,0.00,,,0.00,WeatherCatV1.15B25,2013-04-21 17:09:00,
2013-04-21 10:24:00,71.4,55.4,29.97,East,92,0.0,1.0,57,0.00,,,0.00,WeatherCatV1.15B25,2013-04-21 17:24:00,
2013-04-21 10:39:00,72.2,55.1,29.97,East,92,0.0,2.0,55,0.00,,,0.00,WeatherCatV1.15B25,2013-04-21 17:39:00,
2013-04-21 10:54:00,71.5,54.0,29.97,East,96,2.0,4.0,54,0.00,,,0.00,WeatherCatV1.15B25,2013-04-21 17:54:00,
2013-04-21 11:09:00,71.9,53.3,29.97,East,96,1.0,4.0,52,0.00,,,0.00,WeatherCatV1.15B25,2013-04-21 18:09:00,
2013-04-21 11:24:00,74.1,53.1,29.97,ESE,107,1.0,4.0,48,0.00,,,0.00,WeatherCatV1.15B25,2013-04-21 18:24:00,
2013-04-21 11:39:00,75.2,53.0,29.97,ESE,113,1.0,5.0,46,0.00,,,0.00,WeatherCatV1.15B25,2013-04-21 18:39:00,
2013-04-21 11:54:00,76.8,51.3,29.97,ESE,113,0.0,1.0,41,0.00,,,0.00,WeatherCatV1.15B25,2013-04-21 18:54:00,
2013-04-21 12:09:00,78.1,45.8,29.96,North,355,0.0,2.0,32,0.00,,,0.00,WeatherCatV1.15B25,2013-04-21 19:09:00,
2013-04-21 12:24:00,80.9,49.9,29.96,NNE,14,0.0,0.0,34,0.00,,,0.00,WeatherCatV1.15B25,2013-04-21 19:24:00,
2013-04-21 12:39:00,79.5,44.4,29.95,East,92,0.0,4.0,29,0.00,,,0.00,WeatherCatV1.15B25,2013-04-21 19:39:00,
2013-04-21 12:54:00,80.8,45.5,29.95,NE,46,1.0,3.0,29,0.00,,,0.00,WeatherCatV1.15B25,2013-04-21 19:54:00,
2013-04-21 13:09:00,81.7,50.6,29.94,NW,306,0.0,1.0,34,0.00,,,0.00,WeatherCatV1.15B25,2013-04-21 20:09:00,
2013-04-21 13:24:00,83.5,50.5,29.94,NW,320,0.0,1.0,32,0.00,,,0.00,WeatherCatV1.15B25,2013-04-21 20:24:00,
2013-04-21 13:39:00,80.1,51.5,29.93,SW,224,0.0,4.0,37,0.00,,,0.00,WeatherCatV1.15B25,2013-04-21 20:39:00,
2013-04-21 13:54:00,78.7,51.6,29.93,WSW,242,1.0,4.0,39,0.00,,,0.00,WeatherCatV1.15B25,2013-04-21 20:54:00,
2013-04-21 14:09:00,78.3,49.9,29.93,SSW,200,2.0,3.0,37,0.00,,,0.00,WeatherCatV1.15B25,2013-04-21 21:09:00,
2013-04-21 14:24:00,77.9,50.2,29.92,SW,221,1.0,3.0,38,0.00,,,0.00,WeatherCatV1.15B25,2013-04-21 21:24:00,
2013-04-21 14:39:00,78.8,51.0,29.92,South,179,1.0,4.0,38,0.00,,,0.00,WeatherCatV1.15B25,2013-04-21 21:39:00,
2013-04-21 14:54:00,77.7,51.4,29.92,SW,216,1.0,6.0,40,0.00,,,0.00,WeatherCatV1.15B25,2013-04-21 21:54:00,
2013-04-21 15:24:00,73.0,50.4,29.91,SW,225,1.0,4.0,45,0.00,,,0.00,WeatherCatV1.15B25,2013-04-21 22:24:00,
2013-04-21 15:39:00,73.0,49.8,29.90,SSW,205,1.0,6.0,44,0.00,,,0.00,WeatherCatV1.15B25,2013-04-21 22:39:00,
2013-04-21 15:54:00,74.0,48.1,29.90,WSW,247,1.0,4.0,40,0.00,,,0.00,WeatherCatV1.15B25,2013-04-21 22:54:00,
2013-04-21 16:09:00,73.1,46.7,29.90,SSW,192,3.0,4.0,39,0.00,,,0.00,WeatherCatV1.15B25,2013-04-21 23:09:00,
2013-04-21 16:24:00,72.5,44.0,29.89,SSW,210,2.0,3.0,36,0.00,,,0.00,WeatherCatV1.15B25,2013-04-21 23:24:00,
2013-04-21 16:39:00,73.2,42.4,29.89,SSE,150,2.0,10.0,33,0.00,,,0.00,WeatherCatV1.15B25,2013-04-21 23:39:00,
2013-04-21 16:54:00,73.5,40.2,29.88,SSE,161,0.0,6.0,30,0.00,,,0.00,WeatherCatV1.15B25,2013-04-21 23:54:00,
2013-04-21 17:09:00,73.8,45.2,29.88,NE,44,2.0,3.0,36,0.00,,,0.00,WeatherCatV1.15B25,2013-04-22 00:09:00,
2013-04-21 17:24:00,73.3,45.4,29.88,ENE,59,0.0,1.0,37,0.00,,,0.00,WeatherCatV1.15B25,2013-04-22 00:24:00,
2013-04-21 17:39:00,73.2,44.6,29.88,ENE,74,1.0,1.0,36,0.00,,,0.00,WeatherCatV1.15B25,2013-04-22 00:39:00,
2013-04-21 17:54:00,72.8,45.0,29.87,East,82,0.0,3.0,37,0.00,,,0.00,WeatherCatV1.15B25,2013-04-22 00:54:00,
2013-04-21 18:09:00,72.2,43.7,29.87,East,82,0.0,1.0,36,0.00,,,0.00,WeatherCatV1.15B25,2013-04-22 01:09:00,
2013-04-21 18:24:00,72.1,45.8,29.86,East,82,0.0,0.0,39,0.00,,,0.00,WeatherCatV1.15B25,2013-04-22 01:24:00,
2013-04-21 18:39:00,71.7,41.8,29.86,East,82,0.0,1.0,34,0.00,,,0.00,WeatherCatV1.15B25,2013-04-22 01:39:00,
2013-04-21 18:54:00,71.8,41.9,29.86,ESE,109,1.0,1.0,34,0.00,,,0.00,WeatherCatV1.15B25,2013-04-22 01:54:00,
2013-04-21 19:09:00,72.2,43.0,29.86,ESE,109,0.0,2.0,35,0.00,,,0.00,WeatherCatV1.15B25,2013-04-22 02:09:00,
2013-04-21 19:24:00,73.2,46.1,29.86,ENE,63,0.0,2.0,38,0.00,,,0.00,WeatherCatV1.15B25,2013-04-22 02:24:00,
2013-04-21 19:39:00,73.4,40.1,29.85,East,101,0.0,1.0,30,0.00,,,0.00,WeatherCatV1.15B25,2013-04-22 02:39:00,
2013-04-21 19:54:00,73.0,37.0,29.86,ENE,63,2.0,4.0,27,0.00,,,0.00,WeatherCatV1.15B25,2013-04-22 02:54:00,
2013-04-21 20:09:00,72.8,35.9,29.86,SE,127,2.0,5.0,26,0.00,,,0.00,WeatherCatV1.15B25,2013-04-22 03:09:00,
2013-04-21 20:24:00,71.1,39.7,29.86,SE,126,0.0,0.0,32,0.00,,,0.00,WeatherCatV1.15B25,2013-04-22 03:24:00,
2013-04-21 20:39:00,69.8,38.6,29.86,ESE,121,4.0,4.0,32,0.00,,,0.00,WeatherCatV1.15B25,2013-04-22 03:39:00,
2013-04-21 20:54:00,66.6,44.0,29.87,NNW,332,4.0,4.0,44,0.00,,,0.00,WeatherCatV1.15B25,2013-04-22 03:54:00,
2013-04-21 21:09:00,64.5,45.4,29.87,NNW,332,0.0,0.0,50,0.00,,,0.00,WeatherCatV1.15B25,2013-04-22 04:09:00,
2013-04-21 21:24:00,63.4,45.5,29.88,NW,322,2.0,2.0,52,0.00,,,0.00,WeatherCatV1.15B25,2013-04-22 04:24:00,
2013-04-21 21:39:00,64.0,41.6,29.88,NW,322,0.0,0.0,44,0.00,,,0.00,WeatherCatV1.15B25,2013-04-22 04:39:00,
2013-04-21 21:54:00,63.2,45.3,29.88,NW,323,0.0,0.0,52,0.00,,,0.00,WeatherCatV1.15B25,2013-04-22 04:54:00,
2013-04-21 22:09:00,63.0,38.9,29.88,NW,322,0.0,0.0,41,0.00,,,0.00,WeatherCatV1.15B25,2013-04-22 05:09:00,
2013-04-21 22:24:00,65.6,41.3,29.89,NW,322,0.0,0.0,41,0.00,,,0.00,WeatherCatV1.15B25,2013-04-22 05:24:00,
2013-04-21 22:39:00,67.7,42.5,29.88,NW,323,0.0,0.0,40,0.00,,,0.00,WeatherCatV1.15B25,2013-04-22 05:39:00,
2013-04-21 22:54:00,68.2,43.6,29.88,NW,323,0.0,0.0,41,0.00,,,0.00,WeatherCatV1.15B25,2013-04-22 05:54:00,
2013-04-21 23:09:00,68.6,44.0,29.88,NW,322,0.0,0.0,41,0.00,,,0.00,WeatherCatV1.15B25,2013-04-22 06:09:00,
2013-04-21 23:24:00,69.0,43.7,29.88,NW,322,0.0,0.0,40,0.00,,,0.00,WeatherCatV1.15B25,2013-04-22 06:24:00,
2013-04-21 23:35:00,69.0,44.3,29.88,NW,323,0.0,0.0,41,0.00,,,0.00,WeatherCatV1.15B25,2013-04-22 06:35:00,
2013-04-21 23:39:00,68.7,44.0,29.88,NW,323,0.0,0.0,41,0.00,,,0.00,WeatherCatV1.15B25,2013-04-22 06:39:00,
2013-04-21 23:40:00,68.7,44.0,29.88,NW,323,0.0,0.0,41,0.00,,,0.00,WeatherCatV1.15B25,2013-04-22 06:40:00,
2013-04-21 23:45:00,68.8,44.1,29.88,NW,323,0.0,0.0,41,0.00,,,0.00,WeatherCatV1.15B25,2013-04-22 06:45:00,
2013-04-21 23:50:00,68.8,44.1,29.88,NW,315,0.0,0.0,41,0.00,,,0.00,WeatherCatV1.15B25,2013-04-22 06:50:00,
2013-04-21 23:55:00,68.8,44.1,29.88,NW,315,0.0,0.0,41,0.00,,,0.00,WeatherCatV1.15B25,2013-04-22 06:55:00,